This is the latest recevied weather packets stored in our database for station/object W6UA-13. If no packets are shown the sender has not sent any weather packets the latest 10 day(s).
| Time | Temp. | Humidity | Pressure | Rain* | Wind** | Luminosity | Snow |
|---|---|---|---|---|---|---|---|
| 1777135800 | 13.89° C | 71% | 1013.2 hPa | 0 mm | - | 142 W/m² | - |
| 1777134900 | 13.33° C | 71% | 1013.3 hPa | 0 mm | - | 91 W/m² | - |
| 1777134000 | 13.33° C | 72% | 1013.4 hPa | 0 mm | - | 98 W/m² | - |
| 1777133100 | 13.33° C | 72% | 1013.4 hPa | 0 mm | - | 74 W/m² | - |
| 1777132200 | 13.33° C | 73% | 1013.3 hPa | 0 mm | - | 98 W/m² | - |
| 1777131300 | 13.33° C | 74% | 1013.2 hPa | 0 mm | - | 104 W/m² | - |
| 1777130400 | 13.33° C | 75% | 1012.8 hPa | 0 mm | - | 91 W/m² | - |
| 1777129500 | 12.22° C | 77% | 1012.8 hPa | 0 mm | - | 169 W/m² | - |
| 1777128600 | 12.22° C | 79% | 1012.8 hPa | 0 mm | - | 51 W/m² | - |
| 1777127700 | 11.67° C | 80% | 1012.8 hPa | 0 mm | - | 37 W/m² | - |
| 1777126800 | 11.67° C | 80% | 1012.8 hPa | 0 mm | - | 23 W/m² | - |
| 1777125900 | 11.67° C | 81% | 1012.4 hPa | 0 mm | - | 18 W/m² | - |
| 1777125000 | 11.11° C | 81% | 1012.1 hPa | 0 mm | - | 18 W/m² | - |
| 1777124100 | 11.11° C | 82% | 1012.1 hPa | 0 mm | - | 0 W/m² | - |
| 1777123200 | 11.11° C | 82% | 1011.8 hPa | 0 mm | - | 0 W/m² | - |
| 1777122300 | 11.11° C | 82% | 1011.7 hPa | 0 mm | - | 0 W/m² | - |
| 1777121400 | 11.11° C | 82% | 1011.7 hPa | 0 mm | - | 0 W/m² | - |
| 1777120500 | 11.11° C | 82% | 1011.7 hPa | 0 mm | - | 0 W/m² | - |
| 1777119600 | 11.11° C | 82% | 1011.5 hPa | 0 mm | - | 0 W/m² | - |
| 1777118700 | 11.11° C | 82% | 1011.5 hPa | 0 mm | - | 0 W/m² | - |
| 1777117800 | 11.11° C | 82% | 1011.6 hPa | 0 mm | - | 0 W/m² | - |
| 1777116900 | 11.11° C | 82% | 1011.7 hPa | 0 mm | - | 0 W/m² | - |
| 1777116000 | 11.11° C | 81% | 1011.7 hPa | 0 mm | - | 0 W/m² | - |
| 1777115100 | 11.11° C | 80% | 1011.6 hPa | 0 mm | - | 0 W/m² | - |
| 1777114201 | 11.67° C | 79% | 1011.6 hPa | 0 mm | - | 0 W/m² | - |
* Rain latest hour (hover to see other rain measurements)
** Current wind speed in m/s (hover to see current wind gust speed)